Location: York
(31.8935°S, 116.7682°E)
Time: 23:02:45
(UTC+08:00)

Envisat - Pass Details

Date: 19 May 2021
Orbit: 764 x 766 km, 98.1° (Epoch: 14 June)

Event Time Altitude Azimuth Distance (km) Brightness Sun altitude
Rises 03:57:16 0° 47° (NE) 3,223 6.8 -37.9°
Reaches altitude 10° 04:00:01 10° 62° (ENE) 2,306 6.1 -37.3°
Maximum altitude 04:03:51 22° 111° (ESE) 1,643 5.2 -36.5°
Enters shadow 04:05:42 18° 140° (SE) 1,825 5.2 -36.1°
